FENGYUN 1C DEB

Satellite information

Favourite Embed

Satellite Type and Status

DEBRISIN ORBIT

Key statistics

Satellite FENGYUN 1C DEB at a glance.

Uptime

9496

Days in orbit

Revolutions

≈ 14.2

Per day

Orbit

SSO

Sun Synchronous Orbit

Inclination

98.7

Latest

Satellite identification and parameters

Extended collection of information and parameters for FENGYUN 1C DEB.

Object identification

Identified? True

Debris? True

Object name: FENGYUN 1C DEB

International designator: 1999-025CQM

Object number (NORAD): 32095

Object ID (CCSDS): 32095

Country: PEOPLES REPUBLIC OF CHINA (PRC)

Current information (Y/N): Y

RCS size: SMALL

Orbital parameters

Period: 101.713 minutes

Inclination: 98.6523 deg

SMA: 7217.882 km

Apoapsis: 896.271 km

Periapsis: 783.223 km

RAAN: 149.7907 deg

Eccentricy: 0.0078311

Argument of periapsis: 0.7602 deg

Mean anomaly: 359.3678 deg

Mean motion: 14.15754927 rev/day

Mean motion (dot): 0.00000681 rev/day2

B* drag term: 0.00035805 1/REarth

Two-line elements (TLE)

Creation date: May 8, 2025, 3:01 a.m.

Reference frame: TEME

Reference center: EARTH

Epoch: May 7, 2025, 7:29 p.m. UTC

TLE line 0: 0 FENGYUN 1C DEB

TLE line 1: 1 32095U 99025CQM 25127.81222657 .00000681 00000-0 35805-3 0 9993

TLE line 2: 2 32095 98.6523 149.7907 0078311 0.7602 359.3678 14.15754927917199

Live tracking on map

Real-time ground track for satellite FENGYUN 1C DEB.

In-orbit conjunctions

A list of the most updated potential collisions computed for object FENGYUN 1C DEB.

Target Orbit TCA Probability of collision Miss distance Type
CZ-6A DEB LEO 2025-05-05 16:57:57 0.0001687178 6.0 (m) DEBRIS
TECHSAT 1B SSO 2024-12-20 15:33:16 0.0001176198 871.0 (m) PAYLOAD

Associated space launch

Chinese polar orbiting meteorological satellite

FENGYUN 1C DEB was lifted into orbit during the mission ‘Long March 4B | Feng Yun 1C’, on board a Long March 4B space rocket.

The launch took place on May 10, 1999, 1:33 a.m. from Launch Complex 7.

For more information about the launch, click the button.

Launch to space Long March 4B | Feng Yun 1C
Long March 4B | Feng Yun 1C

Agency: N/A

Status: Launch Successful

Launch date: May 10, 1999, 1:33 a.m. UTC

Rocket: Long March 4B

Launch pad: Launch Complex 7

Location: Taiyuan Satellite Launch Center, People's Republic of China

...

Latest news about this satellite

There are no fresh news available about this satellite. Check back as we update our databases every day.


Newsletter sign-up

Weekly statistics, charts and insights to help you stay on top of the space industry.